Location: Astronomy Adventures Observing Site
(35.3995°N, 106.1279°W)
Time: 20:11:35
(UTC-06:00)

Envisat - Pass Details

Date: 29 January 2022
Orbit: 764 x 765 km, 98.2° (Epoch: 27 May)

Event Time Altitude Azimuth Distance (km) Brightness Sun altitude
Rises 05:30:21 0° 3° (N) 3,235 6.2 -19.7°
Reaches altitude 10° 05:32:47 10° 356° (N) 2,305 5.3 -19.2°
Maximum altitude 05:37:28 39° 289° (WNW) 1,139 3.4 -18.2°
Drops below altitude 10° 05:42:08 10° 221° (SW) 2,293 5.2 -17.3°
Sets 05:44:33 0° 214° (SSW) 3,216 6.0 -16.8°
